Preview of NWS' New Version of Forecast
This preview is not operational and should not be used for support decisions.

Regional Weather Roundup (RWR)

Issued by National Weather Service (NWS)

                            
000
ASUS43 KDTX 220710
RWRMI 
MICHIGAN HOURLY REGIONAL WEATHER ROUNDUP
NATIONAL WEATHER SERVICE DETROIT/PONTIAC MI
300 AM EDT MON APR 22 2019

NOTE: "FAIR" INDICATES FEW OR NO CLOUDS BELOW 12,000 FEET WITH NO
SIGNIFICANT WEATHER AND/OR OBSTRUCTION TO VISIBILITY.

MIZ047>049-052>055-059>063-066>070-074>076-081>083-220800-
SOUTHEAST LOWER MICHIGAN
  
CITY           SKY/WX    TMP DP  RH WIND       PRES   REMARKS
ADRIAN         FAIR      49  44  83 S3        30.17F                  
ALMA           FAIR      56  43  61 S7        30.12F                  
ANN ARBOR      MOCLDY    43  41  93 W3        30.16F                  
BAD AXE        FAIR      48  43  81 S5        30.14S                  
CARO           FAIR      47  42  80 CALM      30.14F                  
DETROIT CITY   FAIR      48  38  68 CALM      30.16F                  
DETROIT        FAIR      48  41  76 CALM      30.17F                  
FLINT          MOCLDY    50  44  80 S6        30.16S                  
GROSSE ILE     FAIR      45  43  93 S3        30.16F                  
HILLSDALE      FAIR      50  41  70 S5        30.16S                  
HOWELL         FAIR      51  42  70 S5        30.16F                  

CITY           SKY/WX    TMP DP  RH WIND       PRES   REMARKS
JACKSON        FAIR      50  43  77 SE5       30.15F                  
LAMBERTVILLE   FAIR      47  45  95 CALM      30.17S                  
LANSING        FAIR      52  43  71 S8        30.15S                  
LAPEER         FAIR      44  41  89 CALM      30.16F                  
MASON          FAIR      51  43  75 S3        30.15S                  
MONROE         FAIR      47  46  97 CALM      30.16F                  
MT. CLEMENS    FAIR      42  42 100 CALM      30.16S FOG              
PONTIAC        FAIR      46  40  79 CALM      30.16S                  
PORT HOPE        N/A     49  41  74 S7        30.12F                  
PORT HURON     FAIR      43  41  93 CALM      30.18S FOG              
TRI CITIES     FAIR      54  44  69 S9        30.13F                  
MIDLAND        FAIR      57  42  56 S5        30.11F                  
TROY           FAIR      49  37  61 W3        30.18S                  
SAGINAW HB     FAIR      52  46  82 S6        30.13F                  
$$
MIZ043>046-050>051-056>058-064>065-071>073-077>080-220800-
SOUTHWEST LOWER MICHIGAN
  
CITY           SKY/WX    TMP DP  RH WIND       PRES   REMARKS
BATTLE CREEK   FAIR      53  43  68 S9        30.13F                  
BENTON HARBOR  FAIR      55  41  59 SE7       30.10S                  
BIG RAPIDS     FAIR      56  37  48 S3        30.09R                  
COLDWATER      FAIR      52  44  74 SE7       30.15S                  
FREMONT        FAIR      59  36  42 S6        30.08S                  
HOLLAND        FAIR      55  42  61 S10       30.10S                  
GRAND RAPIDS   FAIR      54  42  64 S12       30.10F                  
IONIA          FAIR      51  42  71 SE9       30.12F                  
KALAMAZOO      FAIR      53  44  71 SE5       30.13F                  
LUDINGTON      FAIR      61  34  35 S8        30.04S                  
MARSHALL       FAIR      52  44  74 S5        30.14F                  
MOUNT PLEASANT FAIR      57  41  54 S7        30.09F                  
MUSKEGON       FAIR      61  36  39 SE10      30.07F                  
SOUTH HAVEN    FAIR      57  41  54 S6        30.10S                  
$$
MIZ016>042-220800-
NORTHERN LOWER MICHIGAN
  
CITY           SKY/WX    TMP DP  RH WIND       PRES   REMARKS
ALPENA         CLOUDY    44  36  73 E3        30.12S                  
BEAVER ISLAND  FAIR      42  29  61 E13       30.08F                  
BELLAIRE       FAIR      45  40  83 CALM      30.06S                  
CADILLAC       FAIR      59  35  39 SW7       30.06S                  
CHARLEVOIX     FAIR      43  32  64 CALM      30.09S                  
FRANKFORT      FAIR      64  28  25 S6        30.03R                  
GAYLORD        FAIR      52  36  54 SE5       30.08S                  
GRAYLING       CLOUDY    55  36  49 S5        30.08S                  
HARBOR SPRINGS FAIR      47  28  47 E3        30.08R                  
HOUGHTON LAKE  FAIR      55  34  45 S8        30.09S                  
MANISTEE       FAIR      61  34  36 SE6       30.03S                  
OSCODA         FAIR      48  39  73 CALM      30.13S                  
PELLSTON       FAIR      42  32  67 NE6       30.09F                  
ROGERS CITY    CLOUDY    45  35  69 SE3       30.11S                  
TRAVERSE CITY  FAIR      46  36  68 CALM      30.03F                  
$$
MIZ007>008-015-220800-
EASTERN UPPER MICHIGAN
  
CITY           SKY/WX    TMP DP  RH WIND       PRES   REMARKS
KINROSS        LGT RAIN  44  35  70 E13       30.12F                  
MACKINAC ISLAN CLOUDY    40  31  68 E16G23    30.10F WCI  32          
NEWBERRY       CLOUDY    41  38  91 NE6       30.09F                  
S. S. MARIE    CLOUDY    46  37  71 SE6       30.13F                  
MUNISING         N/A     37  35  92 CALM      30.11S                  
$$
MIZ004>006-011>014-085-220800-
CENTRAL UPPER MICHIGAN
  
CITY           SKY/WX    TMP DP  RH WIND       PRES   REMARKS
MANISTIQUE     LGT RAIN  42  37  80 N7        30.09R                  
ESCANABA       FAIR      42  36  79 NE7       30.06F                  
MENOMINEE      LGT RAIN  45  36  70 NE16      30.04F                  
SAWYER-GWINN   LGT RAIN  39  36  89 E10       30.07F WCI  32          
$$
MIZ001>003-009>011-084-220800-
WESTERN UPPER MICHIGAN
  
CITY           SKY/WX    TMP DP  RH WIND       PRES   REMARKS
IRON MOUNTAIN  CLOUDY    41  38  89 NE5       30.06F                  
HOUGHTON       LGT RAIN  41  38  89 E9        30.11F                  
COPPER HARBOR    N/A     38  35  89 VRB3      30.14F                  
IRONWOOD       RAIN      40  39  97 E12       30.07F WCI  33          
$$

ABBREVIATIONS USED IN REMARKS
   TC - TEMPERATURE IN CELSIUS
  WCI - WIND CHILL INDEX
   HX - HEAT INDEX
  VSB - VISIBILITY